Starlink 32501

operational
NORAD ID: 61890 Int'l Des: 2024-204 Owner: SPXS Country: US Constellation: starlink
LEOCIRCULAR

About Starlink 32501

Description loading...

Live Position

Loading 3D Globe...

Upcoming Passes

Altitude History

Altitude vs Time

uPlot chart will show altitude changes over time

Two-Line Element Set

1 61890U 24204S 25353.41272484 -.00000901 00000-0 -18295-4 0 9997
2 61890 53.1582 140.1796 0001016 100.5994 259.5121 15.30193263 62808
Epoch: Dec 19, 2025 • Age: 17 hours

Current Status

Altitude 478.8 km
Velocity 7.63 km/s
Sub-Earth Point 42.35°N, 39.65°E
Launch Date Nov 9, 2024
Age 1.1 years
Type internet

Technical Details

Classification Payload
Mass 730.00 kg
Dry Mass 700.00 kg
Total Mass 730.00 kg
Length 0.30 m
Diameter 4.10 m
Span 29.00 m
Shape Box + pan
Manufacturer SPXS
Bus Type Starlink V2M
Phase Status In Orbit
Owner/State SPXS/US

Large Constellations

Loading constellations...